[[{"header":{"parameterUnit":"m.s-1","parameterCategory":1,"la1":30.2992,"la2":30.254,"lo1":-89.0895,"lo2":-89.0443,"dy":0.0025,"dx":0.0025,"nx":19,"ny":19,"refTime":"2026-04-04T03:00:00:Z","depth":0,"parameterNumber":2,"parameterNumberName":"U-component_of_WINDS"},"data":[0,0,0,-3.7677,-3.7678,-3.7718,-3.7719,-3.7783,-3.7783,0,0,0,0,0,0,0,0,0,0,0,-3.7673,-3.7673,-3.7677,-3.7678,-3.7718,-3.7719,-3.7782,-3.7783,0,0,0,0,0,0,0,0,0,0,0,-3.7672,-3.7673,-3.7674,-3.7678,-3.7718,-3.7719,-3.7782,-3.7747,0,0,0,0,0,0,0,0,0,0,-3.7706,-3.771,-3.7673,-3.7674,-3.7679,-3.7718,-3.7719,-3.7745,-3.7749,-3.777,0,-3.779,0,-3.7788,-3.7788,-3.7789,0,0,0,-3.7672,-3.7706,-3.771,-3.7674,-3.7679,-3.7718,-3.7699,-3.7748,-3.7752,-3.7775,-3.7791,-3.7793,-3.7789,-3.7789,-3.7789,-3.7927,-3.7928,0,0,-3.767,-3.7684,-3.7707,-3.7714,-3.7709,-3.7697,-3.77,-3.775,-3.7768,-3.7791,-3.7794,-3.779,-3.7789,-3.779,-3.7926,-3.7927,0,0,0,-3.7667,-3.7683,-3.7685,-3.7711,-3.7718,-3.7699,-3.7702,-3.7766,-3.7765,-3.7795,-3.7791,-3.779,-3.7791,-3.7925,-3.7926,-3.7985,0,0,0,-3.7666,-3.7681,-3.7684,-3.7694,-3.7717,-3.7742,-3.7716,-3.7762,-3.7767,-3.779,-3.779,-3.7792,-3.7924,-3.7926,-3.7981,-3.8009,0,0,0,-3.7667,-3.7681,-3.769,-3.7694,-3.7712,-3.7741,-3.7744,-3.7763,-3.7765,-3.7789,-3.7792,-3.7923,-3.7925,-3.7978,-3.8004,-3.8049,0,0,0,-3.7673,-3.7741,-3.7691,-3.7766,-3.7712,-3.7778,-3.7743,-3.7791,-3.7819,-3.779,-3.7924,-3.7926,-3.7977,-3.8,-3.8045,-3.8087,-3.8107,0,0,-3.7767,-3.7753,-3.7796,-3.7753,-3.7831,-3.7771,-3.7857,-3.7869,-3.7858,-3.7905,-3.7908,-3.7982,-3.8003,-3.8048,-3.8216,-3.8231,0,0,0,-3.7831,-3.7862,-3.7879,-3.7907,-3.7918,-3.793,-3.7927,-3.7931,-3.797,-3.7885,-3.8011,-3.8023,-3.8049,-3.8068,-3.8082,-3.8102,-3.7937,-3.7936,-3.7936,-3.7982,-3.7966,-3.8036,-3.8025,-3.8052,-3.8049,-3.8069,-3.8074,-3.8049,-3.808,-3.8092,-3.8196,-3.822,-3.823,-3.8251,-3.8116,-3.8116,-3.8116,-3.8116,-3.8117,-3.8157,-3.8124,-3.818,-3.8162,-3.8209,-3.821,-3.8191,-3.8231,-3.8185,-3.8207,-3.8156,-3.8247,-3.8265,-3.812,-3.812,-3.8119,-3.8119,-3.8118,-3.8212,-3.8228,-3.8234,-3.8272,-3.8303,-3.829,-3.8331,-3.8314,-3.8298,-3.832,-3.833,-3.8329,-3.8324,-3.8327,-3.8327,-3.8327,-3.8328,-3.8328,-3.8328,-3.8307,-3.8312,-3.8348,-3.8367,-3.8383,-3.8401,-3.8401,-3.8415,-3.8427,-3.8411,-3.8411,-3.8383,-3.826,-3.8229,-3.8334,-3.8333,-3.8332,-3.8332,-3.8331,-3.8445,-3.8412,-3.8468,-3.8484,-3.8505,-3.8537,-3.8516,-3.8548,-3.8558,-3.8578,-3.8546,-3.846,-3.8443,-3.8433,-3.8406,-3.8551,-3.8551,-3.8551,-3.8551,-3.8524,-3.8515,-3.8569,-3.8595,-3.8619,-3.8606,-3.867,-3.8671,-3.8666,-3.8671,-3.8649,-3.8613,-3.8603,-3.8593,-3.8579,-3.8553,-3.8732,-3.8733,-3.8733,-3.8607,-3.86,-3.8657,-3.8653,-3.8669,-3.8683,-3.8742,-3.8773,-3.8761,-3.874,-3.8675,-3.8667,-3.8609,-3.8592,-3.8565,-3.8544,-3.8497,0,0]},{"header":{"parameterUnit":"m.s-1","parameterCategory":1,"la1":30.2992,"la2":30.254,"lo1":-89.0895,"lo2":-89.0443,"dy":0.0025,"dx":0.0025,"nx":19,"ny":19,"refTime":"2026-04-04T03:00:00:Z","depth":0,"parameterNumber":3,"parameterNumberName":"V-component_of_WINDS"},"data":[0,0,0,2.4954,2.4956,2.5054,2.5055,2.518,2.5181,0,0,0,0,0,0,0,0,0,0,0,2.4925,2.4925,2.4954,2.4957,2.5054,2.5055,2.518,2.5181,0,0,0,0,0,0,0,0,0,0,0,2.4924,2.4925,2.4926,2.4957,2.5054,2.5055,2.5179,2.5106,0,0,0,0,0,0,0,0,0,0,2.5011,2.4982,2.4925,2.4926,2.4958,2.5054,2.5055,2.5102,2.511,2.5136,0,2.5157,0,2.5171,2.5189,2.519,0,0,0,2.4957,2.4976,2.5003,2.4926,2.4958,2.5054,2.501,2.5107,2.5116,2.5146,2.5159,2.5163,2.5173,2.519,2.5191,2.5335,2.5335,0,0,2.4952,2.4942,2.4996,2.5009,2.4993,2.5007,2.5013,2.5112,2.5125,2.5159,2.5166,2.5175,2.5191,2.5192,2.5334,2.5335,0,0,0,2.4936,2.4938,2.4963,2.5003,2.5021,2.501,2.5017,2.5121,2.513,2.5168,2.5177,2.5192,2.5193,2.5333,2.5334,2.5358,0,0,0,2.4933,2.4929,2.496,2.4955,2.5019,2.5072,2.5023,2.5123,2.5135,2.5176,2.5192,2.5194,2.5333,2.5334,2.5356,2.5371,0,0,0,2.4919,2.4927,2.4941,2.4954,2.4996,2.5071,2.5085,2.5126,2.514,2.519,2.5195,2.5332,2.5334,2.5354,2.5368,2.5408,0,0,0,2.49,2.4959,2.4941,2.501,2.4995,2.5084,2.5085,2.5151,2.5197,2.5192,2.5333,2.5334,2.5353,2.5366,2.5406,2.5441,2.5454,0,0,2.4968,2.4966,2.5008,2.4995,2.5085,2.507,2.5164,2.5214,2.5228,2.5299,2.5302,2.5357,2.5368,2.5407,2.5529,2.5539,0,0,0,2.5026,2.5056,2.5082,2.5126,2.5166,2.5204,2.5241,2.526,2.5321,2.5262,2.5381,2.5388,2.5412,2.5429,2.5438,2.546,2.5341,2.5341,2.5341,2.5108,2.5124,2.5195,2.5223,2.5265,2.5305,2.5341,2.5374,2.5375,2.5404,2.5425,2.5497,2.5517,2.5523,2.5546,2.5444,2.5444,2.5444,2.5444,2.5211,2.5257,2.526,2.533,2.5347,2.5406,2.5448,2.5448,2.5506,2.5481,2.5503,2.5476,2.5534,2.5555,2.5446,2.5445,2.5445,2.5445,2.5445,2.5267,2.5292,2.5316,2.5382,2.5432,2.5459,2.5516,2.5528,2.554,2.5562,2.5587,2.5587,2.559,2.5573,2.5573,2.5573,2.5574,2.5574,2.5574,2.5317,2.5343,2.5389,2.544,2.5471,2.5514,2.5556,2.5588,2.5626,2.5631,2.5631,2.5632,2.5537,2.5514,2.5578,2.5577,2.5577,2.5576,2.5576,2.5418,2.5398,2.547,2.5501,2.5564,2.5614,2.563,2.5693,2.5721,2.5749,2.5746,2.5673,2.5672,2.5665,2.5646,2.5741,2.5741,2.5741,2.5741,2.5467,2.5468,2.5546,2.5596,2.5647,2.5669,2.5753,2.5787,2.5819,2.5838,2.5826,2.5802,2.5794,2.5798,2.5788,2.577,2.5895,2.5895,2.5895,2.5531,2.5538,2.5606,2.5638,2.5688,2.5732,2.5811,2.587,2.5902,2.5902,2.5854,2.5847,2.5808,2.5794,2.5793,2.5777,2.5746,0,0]}]]